Miscellaneous Local Product
Issued by NWS Hastings, NE

Home | Current Version | Previous Version | Text Only | Print | Product List | Glossary Off
Versions: 1 2 3 4 5 6 7 8 9 10 11 12 13 14 15 16 17 18 19 20 21 22 23 24 25 26 27 28 29 30 31 32 33 34 35 36 37 38 39 40 41 42 43 44 45 46 47 48 49 50

000
AXUS43 KGID 301402
MISGRI

GID CWA HOURLY WEATHER ROUNDUP
NATIONAL WEATHER SERVICE HASTINGS NE
900 AM CDT TUE JUN 30 2015

NOTE: "FAIR" INDICATES FEW OR NO CLOUDS BELOW 12,000 FEET WITH NO
SIGNIFICANT WEATHER AND/OR OBSTRUCTIONS TO VISIBILITY.

...SOUTH CENTRAL NEBRASKA...

CITY           SKY/WX    TMP DP  RH WIND       PRES   REMARKS
GRAND ISLAND   SUNNY     78  62  57 SW8       29.97S
HASTINGS       SUNNY     78  63  59 SW7       29.98S
KEARNEY        MOSUNNY   77  63  61 SW9       29.98F
ORD            MOSUNNY   73  63  70 NE5       29.96S
YORK           SUNNY     72  64  78 W6        29.97S
AURORA         SUNNY     77  64  63 W8        29.97S
LEXINGTON      PTSUNNY   74  64  69 CALM      29.99F
HOLDREGE       PTSUNNY   75  59  58 SW8       30.00S
HEBRON         SUNNY     71  62  72 CALM      29.96F

...NEBRASKA PANHANDLE...

CITY           SKY/WX    TMP DP  RH WIND       PRES   REMARKS
CHADRON        PTSUNNY   69  61  75 SW6       29.99F
ALLIANCE       MOSUNNY   67  59  75 W3        30.04F
SCOTTSBLUFF    MOSUNNY   67  55  65 W7        30.07S
SIDNEY         SUNNY     71  56  58 W5        30.09F

...WESTERN AND NORTH CENTRAL NEBRASKA...

CITY           SKY/WX    TMP DP  RH WIND       PRES   REMARKS
VALENTINE      SUNNY     74  61  63 E9        29.97R
AINSWORTH      MOSUNNY   74  61  64 E8        29.99S
ONEILL         CLOUDY    71  64  78 SE7       29.97F
BROKEN BOW     PTSUNNY   77  65  66 CALM      29.98F
IMPERIAL       SUNNY     73  58  59 NW3       30.04F
NORTH PLATTE   MOSUNNY   72  63  73 CALM      30.01S
MCCOOK         PTSUNNY   73  59  61 SW6       30.01S

...EASTERN NEBRASKA...

CITY           SKY/WX    TMP DP  RH WIND       PRES   REMARKS
NORFOLK        CLOUDY    73  65  75 E5        29.97S HAZE
SO SIOUX CITY  LGT RAIN  69  64  84 VRB3      29.95S
TEKAMAH        CLOUDY    73  64  73 W8        29.95F HAZE
COLUMBUS       CLOUDY    70  63  78 SE3       29.97F
ALBION         CLOUDY    68  62  83 CALM      29.98F HAZE
OMAHA EPPLEY   CLOUDY    73  64  73 CALM      29.95S HAZE
MILLARD        PTSUNNY   73  65  75 W5        29.95F
LINCOLN        PTSUNNY   75  65  70 N5        29.98R HAZE
NEBRASKA CITY  MOSUNNY   76  60  56 N3        29.96S
BEATRICE       SUNNY     73  64  72 CALM      29.96S
FALLS CITY     MOSUNNY   73  66  78 NW5       29.95R

...NORTHERN KANSAS...

CITY           SKY/WX    TMP DP  RH WIND       PRES   REMARKS
GOODLAND       SUNNY     76  55  48 W5        30.08R
HILL CITY      MOSUNNY   79  57  46 W5        30.02R
NORTON         SUNNY     79  54  41 CALM      30.00S
PHILLIPSBURG   SUNNY     81  57  44 SW3       30.00R
SMITH CENTER   SUNNY     77  57  50 SW5       29.99S
HAYS           SUNNY     81  57  44 CALM      30.01S
RUSSELL        SUNNY     78  59  51 SW6       29.99S
CONCORDIA      SUNNY     80  63  55 SW6       29.97F
SALINA         MOSUNNY   79  62  56 SW5       29.98R
TOPEKA         SUNNY     73  63  70 W5        29.96R



USA.gov is the U.S. government's official web portal to all federal, state and local government web resources and services.